This demonstration page uses our WeatherBlox Daily Observations layout. Learn more.

Left ArrowRight Arrow

Hourly Observations for July 6, 2015

Temp ( °F °C ) Dew Point ( °F °C ) Humidity (%) Winds ( mph kmh ) Pressure ( in mb ) Visibility ( mi km ) Precip ( " mm )
12:51 am 00:51 Partly Cloudy 71 21.7 67 19.4 87 87 NE 6 9 29.9 1012 10 16.0934 N/A
1:51 am 01:51 Clear 70 21.1 68 20 93 93 N N/A 30.13 1020 10 16.0934 N/A
2:51 am 02:51 Cloudy 71 21.7 68 20 90 90 N N/A 29.88 1012 10 16.0934 N/A
3:51 am 03:51 Cloudy 71 21.7 67 19.4 87 87 N N/A 29.89 1012 10 16.0934 N/A
4:51 am 04:51 Mostly Clear 71 21.7 67 19.4 87 87 N N/A 29.9 1013 10 16.0934 N/A
5:51 am 05:51 Mostly Sunny 71 21.7 68 20 90 90 N N/A 29.93 1014 10 16.0934 N/A
6:51 am 06:51 Sunny 72 22.2 67 19.4 84 84 N N/A 29.94 1014 10 16.0934 N/A
7:51 am 07:51 Sunny 75 23.9 66 18.9 74 74 N N/A 29.95 1014 10 16.0934 N/A
8:51 am 08:51 Sunny 82 27.8 63 17.2 53 53 WNW 14 22 29.93 1014 10 16.0934 N/A
9:51 am 09:51 Sunny 85 29.4 62 16.7 46 46 WNW 15 24 29.91 1013 10 16.0934 N/A
10:51 am 10:51 Sunny 89 31.7 61 16.1 39 39 WNW 17 28 29.9 1013 10 16.0934 N/A
11:51 am 11:51 Sunny 92 33.3 61 16.1 36 36 W 15 24 29.87 1012 10 16.0934 N/A
12:51 pm 12:51 Sunny 94 34.4 58 14.4 30 30 WNW 17 28 29.83 1010 10 16.0934 N/A
1:51 pm 13:51 Sunny 96 35.6 56 13.3 26 26 W 14 22 29.81 1009 10 16.0934 N/A
2:51 pm 14:51 Sunny 96 35.6 55 12.8 25 25 NW 15 24 29.78 1008 10 16.0934 N/A
3:00 pm 15:00 Sunny 96 35.6 56 13.3 26 26 W 18 30 29.65 1004 10 16.0934 N/A
3:51 pm 15:51 Sunny 97 36.1 56 13.3 25 25 W 17 28 29.75 1007 10 16.0934 N/A
4:51 pm 16:51 Sunny 96 35.6 56 13.3 26 26 WNW 18 30 29.73 1007 10 16.0934 N/A
5:51 pm 17:51 Sunny 93 33.9 56 13.3 29 29 NW 14 22 29.73 1007 10 16.0934 N/A
6:51 pm 18:51 Sunny 92 33.3 55 12.8 29 29 WNW 21 33 29.74 1007 10 16.0934 N/A
7:51 pm 19:51 Mostly Clear 88 31.1 57 13.9 35 35 WNW 13 20 29.77 1008 10 16.0934 N/A
8:51 pm 20:51 Clear 85 29.4 60 15.6 43 43 NNW 13 20 29.78 1008 10 16.0934 N/A
9:51 pm 21:51 Clear 84 28.9 60 15.6 44 44 NW 10 17 29.8 1009 10 16.0934 N/A
10:51 pm 22:51 Clear 82 27.8 61 16.1 49 49 NW 12 19 29.79 1009 10 16.0934 N/A
11:51 pm 23:51 Clear 82 27.8 59 15 46 46 NW 14 22 29.78 1009 10 16.0934 N/A

Powered by AerisWeather